AS211 Weather Reports


Display with metric or nautical units.
time (UTC)temp
F
wind
direction
speed
MPH
gust
MPH
rain 1hr
in
rain 24hr
in
rain mn
in
humidity
%
barometer
mb
20260503233503 45 266 2.0 9.0 0.01 0.06 0.06 91 1008.5
20260503233003 45 184 3.0 9.0 0.01 0.06 0.06 91 1008.5
20260503232503 44 193 2.0 9.0 0.00 0.05 0.05 91 1008.8
20260503232003 44 198 2.0 7.0 0.00 0.05 0.05 93 1008.8
20260503231503 44 224 1.0 7.0 0.00 0.05 0.05 94 1009.1
20260503231003 44 338 1.0 7.0 0.01 0.05 0.05 94 1008.5
20260503230503 44 189 3.0 7.0 0.01 0.05 0.05 94 1008.5
20260503230003 43 189 4.0 7.0 0.01 0.05 0.05 94 1008.8
20260503225503 43 155 1.0 6.0 0.01 0.05 0.05 95 1008.8
20260503224503 43 152 1.0 5.0 0.01 0.05 0.05 95 1009.1
20260503224003 43 171 3.0 6.0 0.01 0.05 0.05 95 1008.5
20260503223503 43 165 3.0 6.0 0.01 0.05 0.05 95 1009.1
20260503223003 43 168 3.0 6.0 0.01 0.05 0.05 95 1009.1
20260503222004 43 186 3.0 9.0 0.01 0.05 0.05 94 1009.1
20260503221503 43 194 3.0 9.0 0.01 0.05 0.05 93 1009.5
20260503221003 43 187 3.0 6.0 0.00 0.04 0.04 93 1009.5
20260503220503 43 170 3.0 6.0 0.00 0.04 0.04 93 1008.8
20260503220003 43 178 6.0 6.0 0.01 0.04 0.04 93 1009.5
20260503215503 43 165 1.0 5.0 0.02 0.04 0.04 92 1009.5
20260503214003 43 191 0.0 6.0 0.04 0.04 0.04 92 1009.1
20260503213503 43 186 2.0 6.0 0.04 0.04 0.04 92 1009.1
20260503213004 43 199 2.0 5.0 0.04 0.04 0.04 93 1009.5
20260503212503 43 150 3.0 7.0 0.04 0.04 0.04 93 1008.8
20260503212003 43 166 1.0 7.0 0.04 0.04 0.04 92 1009.5
20260503211503 44 259 2.0 7.0 0.04 0.04 0.04 91 1009.5
20260503211003 44 287 1.0 8.0 0.04 0.04 0.04 91 1009.8
20260503210503 44 315 1.0 13.0 0.04 0.04 0.04 88 1009.8
20260503210004 46 270 2.0 13.0 0.03 0.03 0.03 83 1009.8
20260503205503 47 281 7.0 13.0 0.02 0.02 0.02 81 1009.5
20260503205004 48 268 6.0 12.0 0.01 0.01 0.01 76 1009.5
20260503204503 49 297 6.0 9.0 0.00 0.00 0.00 72 1008.8
20260503204004 49 305 2.0 5.0 0.00 0.00 0.00 73 1008.8
20260503203503 49 161 0.0 5.0 0.00 0.00 0.00 70 1009.1
20260503203003 49 264 2.0 5.0 0.00 0.00 0.00 70 1009.1
20260503202503 49 171 2.0 3.0 0.00 0.00 0.00 71 1009.1
20260503201503 49 155 0.0 15.0 0.00 0.00 0.00 72 1008.8
20260503201003 48 105 0.0 15.0 0.00 0.00 0.00 72 1009.1
20260503200503 48 297 5.0 15.0 0.00 0.00 0.00 71 1009.5
20260503200004 48 238 2.0 14.0 0.00 0.00 0.00 73 1009.5
20260503195503 49 201 5.0 14.0 0.00 0.00 0.00 71 1009.5
20260503195003 50 320 7.0 13.0 0.00 0.00 0.00 65 1009.5
20260503194503 51 297 3.0 13.0 0.00 0.00 0.00 61 1009.5
20260503194003 51 189 1.0 10.0 0.00 0.00 0.00 61 1009.5
20260503193003 52 189 0.0 7.0 0.00 0.00 0.00 53 1009.5
20260503192503 53 195 7.0 12.0 0.00 0.00 0.00 52 1009.5
20260503192003 53 260 2.0 12.0 0.00 0.00 0.00 52 1009.1
20260503191503 52 203 3.0 12.0 0.00 0.00 0.00 53 1009.5
20260503191003 52 194 2.0 12.0 0.00 0.00 0.00 52 1009.8
20260503190504 52 210 5.0 13.0 0.00 0.00 0.00 53 1009.5
20260503190003 52 222 3.0 13.0 0.00 0.00 0.00 53 1009.7
20260503185503 52 205 2.0 13.0 0.00 0.00 0.00 54 1010.0
20260503185003 52 187 5.0 13.0 0.00 0.00 0.00 53 1010.0
20260503184004 51 174 1.0 12.0 0.00 0.00 0.00 52 1009.8
20260503183503 51 161 3.0 12.0 0.00 0.00 0.00 51 1009.8
20260503183004 51 177 2.0 12.0 0.00 0.00 0.00 52 1010.0
20260503182504 51 258 0.0 12.0 0.00 0.00 0.00 52 1010.5
20260503181004 51 207 3.0 12.0 0.00 0.00 0.00 53 1010.8
20260503180504 50 263 3.0 12.0 0.00 0.00 0.00 52 1010.8
20260503175502 50 215 4.0 16.0 0.00 0.00 0.00 49 1010.8
20260503175003 50 168 6.0 16.0 0.00 0.00 0.00 49 1010.5
20260503174503 51 203 5.0 18.0 0.00 0.00 0.00 49 1010.8
20260503173503 51 176 6.0 18.0 0.00 0.00 0.00 48 1010.5
20260503172504 52 279 5.0 15.0 0.00 0.00 0.00 46 1011.5
20260503172003 51 228 3.0 15.0 0.00 0.00 0.00 48 1011.2
20260503171503 52 249 3.0 12.0 0.00 0.00 0.00 46 1010.8
20260503171003 53 197 2.0 7.0 0.00 0.00 0.00 45 1011.2
20260503170503 53 211 6.0 9.0 0.00 0.00 0.00 46 1010.8
20260503151004 47 99 2.0 10.0 0.00 0.00 0.00 46 1012.9
20260503150503 46 103 1.0 10.0 0.00 0.00 0.00 46 1012.9
20260503131003 40 203 1.0 7.0 0.00 0.00 0.00 66 1013.7
20260503130504 40 171 2.0 7.0 0.00 0.00 0.00 66 1013.9
20260503110504 33 74 2.0 2.0 0.00 0.00 0.00 71 1014.2
20260503090503 34 91 1.0 2.0 0.00 0.00 0.00 65 1014.2
20260503081503 35 113 2.0 2.0 0.00 0.00 0.00 64 1014.6
20260503081004 34 109 2.0 2.0 0.00 0.00 0.00 64 1014.2
20260503072503 35 94 1.0 2.0 0.00 0.00 0.00 65 1015.0
20260503072004 35 104 1.0 2.0 0.00 0.00 0.00 64 1014.7
20260503071503 34 109 2.0 2.0 0.00 0.00 0.00 64 1014.7
20260503071004 35 108 2.0 3.0 0.00 0.00 0.00 64 1015.0
20260503070503 35 110 2.0 3.0 0.00 0.00 0.00 63 1015.2
20260503054503 32 139 2.0 3.0 0.00 0.00 0.00 73 1015.2
20260503053503 31 139 2.0 2.0 0.00 0.00 0.00 76 1015.6
20260503053003 30 113 1.0 2.0 0.00 0.00 0.00 77 1015.2
20260503052502 30 105 0.0 2.0 0.00 0.00 0.00 77 1015.6
20260503051503 30 112 2.0 2.0 0.00 0.00 0.00 77 1015.6
20260503051002 31 108 2.0 2.0 0.00 0.00 0.00 76 1015.6
20260503050502 32 102 2.0 2.0 0.00 0.00 0.00 73 1015.6
20260503050002 34 108 2.0 2.0 0.00 0.00 0.00 70 1015.6
20260503045503 35 100 2.0 2.0 0.00 0.00 0.00 69 1015.6
20260503045003 35 102 1.0 2.0 0.00 0.00 0.00 68 1015.9
20260503043502 34 109 2.0 2.0 0.00 0.00 0.00 70 1016.3
20260503043002 34 117 2.0 2.0 0.00 0.00 0.00 71 1015.6
20260503042502 34 122 2.0 2.0 0.00 0.00 0.00 70 1015.9
20260503042003 33 101 0.0 2.0 0.00 0.00 0.00 71 1016.3
20260503041503 32 109 1.0 2.0 0.00 0.00 0.00 73 1015.9
20260503041004 31 100 1.0 2.0 0.00 0.00 0.00 74 1015.9
20260503040502 31 103 2.0 2.0 0.00 0.00 0.00 75 1015.9
20260503035503 31 89 1.0 2.0 0.00 0.00 0.00 73 1015.9
20260503035002 32 87 1.0 3.0 0.00 0.00 0.00 73 1015.6
20260503034003 34 122 3.0 3.0 0.00 0.00 0.00 68 1015.9
20260503033502 35 111 2.0 2.0 0.00 0.00 0.00 64 1015.9
20260503033002 36 108 2.0 2.0 0.00 0.00 0.00 64 1015.9
20260503032504 36 108 2.0 2.0 0.00 0.00 0.00 62 1016.3
20260503032004 36 96 1.0 2.0 0.00 0.00 0.00 63 1015.9
20260503031503 36 102 2.0 2.0 0.00 0.00 0.00 63 1015.9
20260503031003 36 116 2.0 2.0 0.00 0.00 0.00 63 1016.3
20260503030502 35 80 1.0 2.0 0.00 0.00 0.00 64 1016.6
20260503030003 34 77 1.0 2.0 0.00 0.00 0.00 65 1015.9
20260503025503 33 86 2.0 2.0 0.00 0.00 0.00 66 1016.3
20260503024003 34 100 0.0 2.0 0.00 0.00 0.00 64 1015.9
20260503023504 34 39 1.0 3.0 0.00 0.00 0.00 62 1016.3
20260503023003 35 68 0.0 3.0 0.00 0.00 0.00 62 1016.3
20260503022003 36 115 0.0 3.0 0.00 0.00 0.00 60 1016.3
20260503021503 37 82 1.0 3.0 0.00 0.00 0.00 60 1016.3
20260503021003 37 81 0.0 3.0 0.00 0.00 0.00 59 1016.6
20260503020003 37 13 1.0 2.0 0.00 0.00 0.00 59 1016.6
20260503015502 37 27 1.0 2.0 0.00 0.00 0.00 58 1015.9
20260503015003 37 348 1.0 2.0 0.00 0.00 0.00 58 1015.9
20260503014003 36 310 0.0 2.0 0.00 0.00 0.00 59 1016.3
20260503013504 36 75 0.0 2.0 0.00 0.00 0.00 61 1016.3
20260503013002 35 18 0.0 3.0 0.00 0.00 0.00 61 1016.3
20260503012502 35 34 0.0 3.0 0.00 0.00 0.00 62 1015.9
20260503012003 35 23 1.0 3.0 0.00 0.00 0.00 62 1016.2
20260503011503 35 343 1.0 3.0 0.00 0.00 0.00 61 1016.3
20260503010003 36 357 0.0 2.0 0.00 0.00 0.00 61 1016.1
20260503005003 36 339 0.0 5.0 0.00 0.00 0.00 60 1015.9
20260503004503 36 330 1.0 5.0 0.00 0.00 0.00 60 1015.9
20260503004002 36 10 1.0 5.0 0.00 0.00 0.00 59 1015.8
20260503003503 36 354 2.0 5.0 0.00 0.00 0.00 60 1015.6
20260503003003 37 320 1.0 5.0 0.00 0.00 0.00 59 1015.6
20260503002502 37 73 1.0 5.0 0.00 0.00 0.00 59 1015.9
20260503002004 37 307 2.0 5.0 0.00 0.00 0.00 57 1015.9
20260503001003 38 337 2.0 7.0 0.00 0.00 0.00 57 1015.9
20260503000502 38 312 2.0 7.0 0.00 0.00 0.00 56 1015.6
20260503000002 38 297 3.0 9.0 0.00 0.00 0.00 56 1015.9
20260502235504 38 297 2.0 9.0 0.00 0.00 0.00 56 1015.6
20260502235004 38 328 4.0 9.0 0.00 0.00 0.00 57 1015.6
20260502234503 39 335 4.0 13.0 0.00 0.00 0.00 56 1015.9
20260502234003 39 7 4.0 13.0 0.00 0.00 0.00 57 1015.6